Location: Aydie
(43.5695°N, 0.1043°W)
Time: 13:12:08
(UTC+00:00)

Cosmos 1634 Rocket - Pass Details

Date: 17 November 2025
Orbit: 958 x 992 km, 82.9° (Epoch: 11 December)

Event Time Altitude Azimuth Distance (km) Brightness Sun altitude
Rises 18:59:51 0° 179° (S) 3,681 7.0 -26.4°
Reaches altitude 10° 19:02:22 10° 177° (S) 2,733 6.3 -26.9°
Enters shadow 19:07:39 62° 148° (SSE) 1,097 4.0 -27.8°
